Regional Weather Roundup
Issued by NWS Jackson, KY

Home | Current Version | Previous Version | Graphics & Text | Print | Product List | Glossary On
Versions: 1 2 3 4 5 6 7 8 9 10 11 12 13 14 15 16 17 18 19 20 21 22 23 24 25 26 27 28 29 30 31 32 33 34 35 36 37 38 39 40 41 42 43 44 45 46 47 48 49 50
000
ASUS43 KJKL 271010
RWRJKL

EAST KENTUCKY HOURLY WEATHER ROUNDUP
NATIONAL WEATHER SERVICE JACKSON KY
600 AM EDT THU JUL 27 2017

NOTE: "FAIR" INDICATES FEW OR NO CLOUDS BELOW 12,000 FEET WITH
NO SIGNIFICANT WEATHER AND/OR OBSTRUCTIONS TO VISIBILITY.

* THESE REPORTS ARE NOT UNDER NWS QUALITY CONTROL AND MAY NOT
  REPORT WEATHER SUCH AS PRECIPITATION AND FOG.

KYZ079-080-083-085-087-088-110-112-115-119-120-271100
...EASTERN KENTUCKY...

CITY           SKY/WX    TMP DP  RH WIND       PRES   REMARKS
JACKSON        CLOUDY    73  69  87 CALM      30.02F
LONDON         PTCLDY    72  69  90 CALM      30.03S
SOMERSET*      CLOUDY    70  70 100 CALM      30.03R
MONTICELLO*    CLOUDY    71  71 100 W5        30.04R
WILLIAMSBURG*  MOSUNNY   72  72 100 CALM      30.04R
MIDDLESBORO*   RAIN      70  70 100 SE3       30.06S
HARLAN APT*    CLOUDY    70  68  94 CALM      30.08R
PIKE CO APT*     N/A     71  69  95 SE5       30.04S
BIG SANDY APT* PTSUNNY   73  68  86 CALM      30.02S
MOREHEAD APT*  CLOUDY    73  68  83 CALM      30.00S
ASHLAND*       CLOUDY    70  70 100 CALM      29.96S
$$

KYZ035-036-041-042-044-050-067-078-099-271100
...CENTRAL KENTUCKY...

CITY           SKY/WX    TMP DP  RH WIND       PRES   REMARKS
MT STERLING*   CLOUDY    73  70  88 CALM      30.01R
FLEMING/MASON* CLOUDY    72  68  87 S5        29.99S
DANVILLE*      CLOUDY    73  70  88 SW5       30.02S
LEXINGTON      CLOUDY    76  71  85 SW6       29.99S
FRANKFORT      MOCLDY    77  71  82 S3        29.97R
LOUISVILLE     CLOUDY    80  72  76 SW6       29.96R
LEBANON*         N/A     77  73  88 S5        30.00R
GLASGOW*       CLOUDY    75  75 100 CALM      30.00R
BOWLING GREEN  CLOUDY    79  76  90 W5        29.99R
$$

KYZ091>093-OHZ055-061-077-WVZ005-015-034-035-042-271100
...SOUTHERN OHIO/WEST VIRGINIA...

CITY           SKY/WX    TMP DP  RH WIND       PRES   REMARKS
COVINGTON      CLOUDY    73  72  96 S5        29.95F
COLUMBUS       CLOUDY    70  64  81 CALM      29.97F
DAYTON         CLOUDY    71  65  81 SE5       29.97S
WILMINGTON     PTCLDY    68  65  90 CALM      29.96F
HUNTINGTON     MOCLDY    69  67  93 E5        29.98F
CHARLESTON     PTCLDY    66  64  93 CALM      30.00S
PINEVILLE*     CLOUDY    64  63  96 MISG      30.12S
BECKLEY        PTCLDY    65  62  90 CALM      30.11S
BLUEFIELD      PTCLDY    67  61  81 SW3       30.14S
LOGAN CO APT*    N/A     70  63  78 CALM      30.05S
$$

VAZ002-007-008-TNZ017-027-036-066-071-271100
...SOUTHWEST VIRGINIA/EAST TENNESSEE...

CITY           SKY/WX    TMP DP  RH WIND       PRES   REMARKS
WISE*          PTCLDY    68  68 100 SW6       30.14S
JONESVILLE*      N/A     68  68 100 CALM      30.09S FOG
ABINGDON*      PTCLDY    70  68  94 CALM      30.11S
BRISTOL        CLOUDY    70  68  93 CALM      30.09R
MORRISTOWN*    PTSUNNY   73  70  88 CALM      30.05F
SEVIERVILLE*   PTSUNNY   72  68  88 CALM      30.05S
KNOXVILLE      HVY RAIN  76  72  87 W12       30.05R FOG
LAFOLLETTE*      N/A     72  70  94 CALM      30.08S FOG
OAK RIDGE      CLOUDY    76  72  87 CALM      30.07R
CROSSVILLE     CLEAR     71  68  90 NW3       30.10R
NASHVILLE      MOCLDY    79  72  79 SW5       30.01R
$$

...KEY TO REMARKS...
VSB - VISIBILITY IN MILES
WCI - WIND CHILL INDEX
HX  - HEAT INDEX

$$



USA.gov is the U.S. government's official web portal to all federal, state and local government web resources and services.